CW0652 Weather Reports


Display with metric or nautical units.
time (UTC)temp
F
wind
direction
speed
MPH
gust
MPH
rain 1hr
in
rain 24hr
in
rain mn
in
humidity
%
barometer
mb
20260906112152 62 35 0.0 0.0 0.00 0.00 0.00 99 1015.2
20260906111651 62 39 0.0 0.0 0.00 0.00 0.00 99 1015.3
20260906111145 62 41 0.0 0.0 0.00 0.00 0.00 99 1015.1
20260906110641 62 41 0.0 0.0 0.00 0.00 0.00 99 1015.1
20260906110136 62 41 0.0 0.0 0.00 0.00 0.00 99 1015.0
20260906105630 62 26 0.0 0.0 0.00 0.00 0.00 99 1014.8
20260906105126 62 26 0.0 0.0 0.00 0.00 0.00 99 1014.4
20260906104626 62 26 0.0 0.0 0.00 0.00 0.00 99 1014.4
20260906104119 62 26 0.0 0.0 0.00 0.00 0.00 99 1014.7
20260906103618 62 26 0.0 0.0 0.00 0.00 0.00 99 1014.8
20260906103113 62 26 0.0 0.0 0.00 0.00 0.00 99 1014.4
20260906102613 62 26 0.0 0.0 0.00 0.00 0.00 99 1014.7
20260906102103 62 26 0.0 0.0 0.00 0.00 0.00 99 1014.3
20260906101603 62 39 0.0 0.0 0.00 0.00 0.00 99 1014.4
20260906101103 62 35 1.0 1.0 0.00 0.00 0.00 99 1014.3
20260906100558 62 24 0.0 0.0 0.00 0.00 0.00 99 1014.0
20260906100059 62 29 0.0 0.0 0.00 0.00 0.00 99 1014.2
20260906095558 62 27 1.0 1.0 0.00 0.00 0.00 99 1014.1
20260906095054 62 28 0.0 0.0 0.00 0.00 0.00 99 1014.1
20260906094553 62 29 0.0 0.0 0.00 0.00 0.00 99 1014.1
20260906094049 62 29 0.0 0.0 0.00 0.00 0.00 99 1014.1
20260906093544 62 29 0.0 0.0 0.00 0.00 0.00 99 1014.2
20260906093039 62 29 0.0 0.0 0.00 0.00 0.00 99 1014.0
20260906092534 62 28 0.0 0.0 0.00 0.00 0.00 99 1014.1
20260906092029 62 28 0.0 0.0 0.00 0.00 0.00 99 1013.9
20260906091525 62 28 0.0 0.0 0.00 0.00 0.00 99 1014.2
20260906091021 62 29 0.0 0.0 0.00 0.00 0.00 99 1014.0
20260906090522 63 28 0.0 0.0 0.00 0.00 0.00 99 1014.2
20260906090017 63 28 0.0 0.0 0.00 0.00 0.00 99 1014.2
20260906085515 63 28 0.0 0.0 0.00 0.00 0.00 99 1014.3
20260906085016 63 28 0.0 0.0 0.00 0.00 0.00 99 1014.2
20260906084516 63 29 0.0 0.0 0.00 0.00 0.00 99 1014.8
20260906084014 63 28 0.0 0.0 0.00 0.00 0.00 99 1014.4
20260906083510 63 29 0.0 0.0 0.00 0.00 0.00 99 1014.6
20260906083010 63 28 0.0 0.0 0.00 0.00 0.00 99 1014.3
20260906082505 63 28 0.0 0.0 0.00 0.00 0.00 99 1014.3
20260906082001 63 28 0.0 0.0 0.00 0.00 0.00 99 1014.3
20260906081456 63 28 0.0 0.0 0.00 0.00 0.00 99 1014.2
20260906080952 63 28 0.0 0.0 0.00 0.00 0.00 99 1014.3
20260906080448 63 28 0.0 0.0 0.00 0.00 0.00 99 1014.4
20260906075943 63 28 0.0 0.0 0.00 0.00 0.00 99 1014.1
20260906075438 63 28 0.0 0.0 0.00 0.00 0.00 99 1014.2
20260906074933 63 31 0.0 0.0 0.00 0.00 0.00 99 1014.1
20260906074432 63 31 0.0 0.0 0.00 0.00 0.00 99 1014.1
20260906073931 63 31 0.0 0.0 0.00 0.00 0.00 99 1014.1
20260906073426 63 31 0.0 0.0 0.00 0.00 0.00 99 1014.1
20260906072923 63 32 0.0 0.0 0.00 0.00 0.00 99 1014.1
20260906072418 63 32 0.0 0.0 0.00 0.00 0.00 99 1013.9
20260906071914 64 32 0.0 0.0 0.00 0.00 0.00 99 1014.0
20260906071409 64 29 0.0 0.0 0.00 0.00 0.00 99 1013.9
20260906070905 64 29 0.0 0.0 0.00 0.00 0.00 99 1014.1
20260906070401 64 29 0.0 0.0 0.00 0.00 0.00 99 1014.0
20260906065857 64 29 0.0 0.0 0.00 0.00 0.00 99 1013.9
20260906065350 64 32 1.0 1.0 0.00 0.00 0.00 99 1014.0
20260906064846 64 32 0.0 0.0 0.00 0.00 0.00 99 1014.3
20260906064343 64 32 0.0 0.0 0.00 0.00 0.00 99 1014.3
20260906063842 64 32 0.0 0.0 0.00 0.00 0.00 99 1014.4
20260906063338 64 35 0.0 0.0 0.00 0.00 0.00 99 1014.3
20260906062832 64 35 0.0 0.0 0.00 0.00 0.00 99 1014.1
20260906062332 64 35 0.0 0.0 0.00 0.00 0.00 99 1014.1
20260906061827 64 35 0.0 0.0 0.00 0.00 0.00 99 1014.3
20260906061324 64 35 0.0 0.0 0.00 0.00 0.00 99 1014.4
20260906060818 64 35 0.0 0.0 0.00 0.00 0.00 99 1014.4
20260906060316 64 35 0.0 0.0 0.00 0.00 0.00 99 1014.6
20260906055812 65 35 0.0 0.0 0.00 0.00 0.00 99 1014.4
20260906055307 65 35 0.0 0.0 0.00 0.00 0.00 99 1014.8
20260906054802 65 34 0.0 0.0 0.00 0.00 0.00 99 1014.7
20260906054257 65 33 0.0 0.0 0.00 0.00 0.00 99 1014.9
20260906053754 65 33 0.0 0.0 0.00 0.00 0.00 99 1014.7
20260906053249 65 33 0.0 0.0 0.00 0.00 0.00 99 1014.6
20260906052744 65 33 0.0 0.0 0.00 0.00 0.00 99 1014.6
20260906052240 65 33 0.0 0.0 0.00 0.00 0.00 99 1014.6
20260906051737 65 33 0.0 0.0 0.00 0.00 0.00 98 1014.3
20260906051237 65 33 0.0 0.0 0.00 0.00 0.00 99 1014.7
20260906050732 65 33 0.0 0.0 0.00 0.00 0.00 98 1014.6
20260906050227 65 33 0.0 0.0 0.00 0.00 0.00 98 1014.4
20260906045726 66 33 0.0 0.0 0.00 0.00 0.00 98 1014.4
20260906045221 66 34 0.0 0.0 0.00 0.00 0.00 98 1014.2
20260906044717 66 37 0.0 0.0 0.00 0.00 0.00 98 1014.3
20260906044212 66 37 0.0 0.0 0.00 0.00 0.00 98 1014.4
20260906043708 66 37 0.0 0.0 0.00 0.00 0.00 98 1014.6
20260906043204 66 41 0.0 0.0 0.00 0.00 0.00 98 1014.6
20260906042703 66 41 0.0 0.0 0.00 0.00 0.00 98 1014.8
20260906042203 66 34 0.0 0.0 0.00 0.00 0.00 98 1014.6
20260906041658 66 27 0.0 0.0 0.00 0.00 0.00 98 1014.3
20260906041153 66 27 0.0 0.0 0.00 0.00 0.00 98 1014.6
20260906040649 66 17 0.0 0.0 0.00 0.00 0.00 98 1014.6
20260906040144 66 21 0.0 0.0 0.00 0.00 0.00 98 1014.8
20260906035644 66 38 0.0 0.0 0.00 0.21 0.21 98 1014.8
20260906035140 66 38 0.0 0.0 0.00 0.21 0.21 98 1015.0
20260906034636 66 38 0.0 0.0 0.00 0.21 0.21 98 1015.0
20260906034135 66 40 0.0 0.0 0.00 0.21 0.21 98 1015.1
20260906033631 66 41 0.0 0.0 0.00 0.21 0.21 98 1015.2
20260906033126 67 39 0.0 0.0 0.00 0.21 0.21 98 1015.2
20260906032623 67 39 0.0 0.0 0.00 0.21 0.21 98 1015.2
20260906032122 67 39 0.0 0.0 0.00 0.21 0.21 98 1015.0
20260906031618 67 39 0.0 0.0 0.00 0.21 0.21 98 1015.0
20260906031113 67 42 0.0 0.0 0.00 0.21 0.21 98 1015.2
20260906030612 67 36 0.0 0.0 0.00 0.21 0.21 98 1015.3
20260906030108 67 35 0.0 0.0 0.00 0.21 0.21 98 1015.2
20260906025607 67 33 1.0 0.0 0.00 0.21 0.21 98 1015.3
20260906025105 67 33 0.0 0.0 0.00 0.21 0.21 98 1015.3
20260906024601 68 32 0.0 0.0 0.00 0.21 0.21 98 1015.5
20260906024055 68 30 0.0 0.0 0.00 0.21 0.21 98 1015.3
20260906023551 68 33 0.0 0.0 0.00 0.21 0.21 98 1015.2
20260906023045 67 38 0.0 0.0 0.00 0.21 0.21 98 1015.2
20260906022541 67 38 0.0 0.0 0.00 0.21 0.21 98 1015.1
20260906022036 67 38 0.0 0.0 0.00 0.21 0.21 98 1015.3
20260906021532 67 38 0.0 0.0 0.00 0.21 0.21 97 1015.2
20260906021031 67 38 0.0 0.0 0.00 0.21 0.21 97 1015.1
20260906020530 67 38 0.0 0.0 0.00 0.21 0.21 97 1015.1
20260906020030 67 38 0.0 0.0 0.00 0.21 0.21 97 1015.0
20260906015530 67 38 0.0 0.0 0.00 0.21 0.21 97 1014.9
20260906015029 68 38 0.0 0.0 0.00 0.21 0.21 97 1014.8
20260906014524 68 38 1.0 1.0 0.00 0.21 0.21 97 1014.9
20260906014020 68 38 0.0 0.0 0.00 0.21 0.21 97 1014.7
20260906013515 68 38 0.0 0.0 0.00 0.21 0.21 97 1014.9
20260906013011 68 38 0.0 0.0 0.00 0.21 0.21 97 1014.8
20260906012506 68 38 0.0 0.0 0.00 0.21 0.21 97 1014.6
20260906012005 68 38 0.0 0.0 0.00 0.21 0.21 96 1014.7
20260906011502 68 39 0.0 0.0 0.00 0.21 0.21 96 1014.3
20260906010956 68 40 0.0 0.0 0.00 0.21 0.21 96 1014.2
20260906010451 68 39 1.0 1.0 0.00 0.21 0.21 96 1013.9
20260906005948 68 39 0.0 0.0 0.00 0.21 0.21 96 1014.1
20260906005447 69 39 0.0 0.0 0.00 0.21 0.21 95 1013.8
20260906004945 69 39 1.0 1.0 0.00 0.21 0.21 95 1013.8
20260906004440 69 37 0.0 0.0 0.00 0.21 0.21 95 1014.0
20260906003936 69 37 0.0 0.0 0.00 0.21 0.21 95 1014.0
20260906003435 69 37 0.0 0.0 0.00 0.21 0.21 94 1014.0
20260906002931 70 37 0.0 0.0 0.00 0.21 0.21 94 1014.0
20260906002430 70 37 0.0 0.0 0.00 0.21 0.21 93 1014.2
20260906001925 70 38 1.0 1.0 0.00 0.21 0.21 92 1014.0
20260906001421 71 36 1.0 1.0 0.00 0.21 0.21 91 1014.0
20260906000916 71 27 0.0 0.0 0.00 0.21 0.21 91 1014.0
20260906000412 71 26 0.0 0.0 0.00 0.21 0.21 90 1014.2
20260905235906 71 26 0.0 0.0 0.00 0.21 0.21 90 1014.0
20260905235400 71 26 0.0 0.0 0.00 0.21 0.21 89 1014.2
20260905234855 72 26 0.0 0.0 0.00 0.21 0.21 88 1014.0
20260905234351 73 24 0.0 0.0 0.00 0.21 0.21 87 1014.0
20260905233846 73 15 0.0 0.0 0.00 0.21 0.21 86 1014.1
20260905233341 73 14 0.0 0.0 0.00 0.21 0.21 85 1014.1
20260905232840 73 14 0.0 0.0 0.00 0.21 0.21 85 1014.4
20260905232337 73 14 0.0 0.0 0.00 0.21 0.21 85 1014.0
20260905231832 74 14 0.0 0.0 0.00 0.21 0.21 84 1014.3
20260905231327 74 14 0.0 0.0 0.00 0.21 0.21 82 1014.3
20260905230824 75 14 0.0 0.0 0.00 0.21 0.21 82 1014.3
20260905230321 75 14 0.0 0.0 0.00 0.21 0.21 80 1014.2
20260905225821 76 14 0.0 0.0 0.00 0.21 0.21 79 1014.2
20260905225316 76 16 0.0 0.0 0.00 0.21 0.21 78 1014.2
20260905224815 77 16 0.0 0.0 0.00 0.21 0.21 76 1014.4
20260905224311 77 20 0.0 0.0 0.00 0.21 0.21 77 1014.4
20260905223806 77 19 0.0 0.0 0.00 0.21 0.21 75 1014.6
20260905223303 77 12 0.0 0.0 0.00 0.21 0.21 75 1014.3
20260905222759 77 21 0.0 0.0 0.00 0.21 0.21 75 1014.3
20260905222257 78 18 0.0 0.0 0.00 0.21 0.21 72 1014.3
20260905221753 78 24 0.0 0.0 0.00 0.21 0.21 72 1014.4
20260905221250 80 339 1.0 1.0 0.00 0.21 0.21 71 1014.2
20260905220746 81 27 0.0 0.0 0.00 0.21 0.21 69 1014.3
20260905220242 83 13 0.0 0.0 0.00 0.21 0.21 66 1014.1
20260905215741 83 3 0.0 0.0 0.00 0.21 0.21 67 1014.1
20260905215237 82 0 1.0 1.0 0.00 0.21 0.21 67 1014.0
20260905214732 83 4 1.0 1.0 0.00 0.21 0.21 65 1014.1
20260905214228 83 2 1.0 1.0 0.00 0.21 0.21 65 1014.0
20260905213723 84 25 3.0 4.0 0.00 0.21 0.21 60 1013.9
20260905213219 83 4 0.0 0.0 0.00 0.21 0.21 64 1014.0
20260905212714 83 1 0.0 1.0 0.00 0.21 0.21 63 1013.8
20260905212213 83 98 1.0 1.0 0.00 0.21 0.21 61 1014.0
20260905211708 83 335 1.0 1.0 0.00 0.21 0.21 66 1013.9
20260905211203 82 19 0.0 0.0 0.00 0.21 0.21 64 1013.9
20260905210700 83 301 1.0 1.0 0.00 0.21 0.21 60 1013.7
20260905210200 83 17 0.0 0.0 0.00 0.21 0.21 60 1013.8
20260905205659 82 15 1.0 1.0 0.00 0.21 0.21 64 1013.5
20260905205159 85 11 2.0 2.0 0.00 0.21 0.21 61 1013.6
20260905204658 84 352 1.0 1.0 0.00 0.21 0.21 61 1013.6
20260905204153 84 1 1.0 1.0 0.00 0.21 0.21 61 1013.7
20260905203648 83 352 1.0 1.0 0.00 0.21 0.21 66 1013.7
20260905203144 83 8 1.0 1.0 0.00 0.21 0.21 62 1013.5
20260905202639 82 346 0.0 0.0 0.00 0.21 0.21 68 1013.6
20260905202134 82 352 2.0 2.0 0.00 0.21 0.21 66 1013.4
20260905201630 82 50 2.0 3.0 0.00 0.21 0.21 63 1013.5
20260905201129 81 339 1.0 1.0 0.00 0.21 0.21 66 1013.3
20260905200625 82 23 2.0 2.0 0.00 0.21 0.21 63 1013.6
20260905200121 83 38 1.0 1.0 0.00 0.21 0.21 62 1013.5
20260905195619 83 354 1.0 1.0 0.00 0.21 0.21 68 1013.6
20260905195114 83 42 1.0 1.0 0.00 0.21 0.21 63 1013.8
20260905194614 84 5 1.0 1.0 0.00 0.21 0.21 61 1013.7
20260905194114 83 351 2.0 2.0 0.00 0.21 0.21 66 1013.8
20260905193609 83 58 1.0 1.0 0.00 0.21 0.21 62 1013.8
20260905193103 82 4 1.0 1.0 0.00 0.21 0.21 70 1013.8
20260905192559 82 27 1.0 1.0 0.00 0.21 0.21 64 1014.0
20260905192055 83 206 2.0 3.0 0.00 0.21 0.21 64 1014.2
20260905191554 82 354 1.0 1.0 0.00 0.21 0.21 63 1014.3
20260905191053 81 1 1.0 1.0 0.00 0.21 0.21 71 1014.6
20260905190551 81 186 2.0 3.0 0.00 0.21 0.21 66 1014.4
20260905190051 81 58 2.0 2.0 0.00 0.21 0.21 65 1014.8
20260905185550 82 178 3.0 4.0 0.00 0.21 0.21 65 1014.9
20260905185049 81 58 2.0 2.0 0.00 0.21 0.21 72 1015.0
20260905184544 80 21 1.0 1.0 0.00 0.21 0.21 69 1015.2
20260905184044 80 12 1.0 1.0 0.00 0.21 0.21 70 1015.2
20260905183543 80 314 1.0 1.0 0.00 0.21 0.21 71 1015.1
20260905183039 79 3 2.0 3.0 0.00 0.21 0.21 69 1015.1
20260905182539 80 358 1.0 1.0 0.00 0.21 0.21 74 1015.2
20260905182038 81 17 1.0 1.0 0.00 0.21 0.21 67 1015.0
20260905181533 81 109 2.0 2.0 0.00 0.21 0.21 67 1015.1
20260905181032 81 348 0.0 0.0 0.00 0.21 0.21 70 1014.8
20260905180527 81 13 1.0 0.0 0.00 0.21 0.21 66 1014.8
20260905180023 81 16 0.0 0.0 0.00 0.21 0.21 68 1015.1
20260905175521 81 13 0.0 0.0 0.00 0.21 0.21 72 1015.2
20260905175018 81 300 1.0 2.0 0.00 0.21 0.21 64 1015.2
20260905174513 81 77 1.0 1.0 0.00 0.21 0.21 69 1015.5
20260905174008 80 18 0.0 0.0 0.00 0.21 0.21 76 1015.5
20260905173504 79 53 1.0 1.0 0.00 0.21 0.21 69 1015.5
20260905173000 80 6 1.0 2.0 0.00 0.21 0.21 73 1015.7
20260905172458 80 17 1.0 1.0 0.00 0.21 0.21 74 1015.8
20260905171954 80 347 1.0 1.0 0.00 0.21 0.21 76 1015.9
20260905171450 79 12 0.0 0.0 0.00 0.21 0.21 81 1016.1
20260905170946 78 32 2.0 2.0 0.00 0.21 0.21 79 1016.0
20260905170442 78 0 1.0 1.0 0.00 0.21 0.21 78 1015.9
20260905165941 79 12 1.0 1.0 0.00 0.21 0.21 75 1016.0
20260905165437 78 357 1.0 1.0 0.00 0.21 0.21 81 1015.9
20260905164932 79 12 1.0 1.0 0.00 0.21 0.21 80 1016.0
20260905164432 77 212 3.0 3.0 0.00 0.21 0.21 77 1016.4
20260905163926 78 21 1.0 1.0 0.00 0.21 0.21 77 1016.1
20260905163423 80 8 0.0 0.0 0.00 0.21 0.21 78 1016.3
20260905162919 78 22 1.0 1.0 0.00 0.21 0.21 77 1016.1
20260905162414 76 44 0.0 0.0 0.00 0.21 0.21 83 1016.1
20260905161909 76 15 1.0 1.0 0.00 0.21 0.21 84 1015.8
20260905161408 76 16 1.0 1.0 0.00 0.21 0.21 82 1015.9
20260905160907 75 44 1.0 1.0 0.00 0.21 0.21 82 1015.9
20260905160401 75 6 1.0 1.0 0.00 0.21 0.21 83 1016.0
20260905155901 75 10 1.0 1.0 0.00 0.21 0.21 87 1016.1
20260905155400 75 7 1.0 1.0 0.00 0.21 0.21 85 1016.0
20260905154859 76 11 1.0 1.0 0.00 0.21 0.21 84 1015.9
20260905154355 76 23 1.0 1.0 0.00 0.21 0.21 84 1015.6
20260905153850 77 15 1.0 2.0 0.00 0.21 0.21 82 1015.5
20260905153347 75 37 1.0 1.0 0.00 0.21 0.21 86 1015.5
20260905152846 73 148 3.0 4.0 0.00 0.21 0.21 94 1015.0
20260905152345 71 271 1.0 1.0 0.00 0.21 0.21 95 1015.0
20260905151841 71 284 2.0 2.0 0.00 0.21 0.21 99 1015.1
20260905151336 69 66 1.0 1.0 0.00 0.21 0.21 99 1015.1
20260905150836 69 105 2.0 2.0 0.00 0.21 0.21 99 1015.0
20260905150331 69 71 2.0 2.0 0.00 0.21 0.21 99 1015.0
20260905145829 69 2 2.0 3.0 0.00 0.21 0.21 99 1015.1
20260905145328 68 79 1.0 1.0 0.00 0.21 0.21 99 1015.5
20260905144827 68 51 1.0 1.0 0.00 0.21 0.21 99 1016.4
20260905144323 68 32 0.0 0.0 0.00 0.21 0.21 99 1016.1
20260905143821 68 32 0.0 0.0 0.00 0.21 0.21 99 1016.6
20260905143316 68 31 0.0 0.0 0.00 0.21 0.21 99 1016.6
20260905142815 67 30 1.0 1.0 0.00 0.21 0.21 99 1016.8
20260905142309 67 22 1.0 1.0 0.00 0.21 0.21 99 1017.1
20260905141806 67 38 0.0 0.0 0.00 0.21 0.21 99 1017.2
20260905141301 67 35 0.0 0.0 0.00 0.21 0.21 99 1017.3
20260905140757 67 35 0.0 0.0 0.00 0.21 0.21 99 1017.4
20260905140256 67 36 0.0 0.0 0.00 0.21 0.21 99 1017.4
20260905135755 67 41 1.0 1.0 0.00 0.21 0.21 99 1017.4
20260905135251 67 24 0.0 0.0 0.00 0.21 0.21 99 1017.1
20260905134751 67 22 0.0 0.0 0.00 0.21 0.21 99 1017.5
20260905134250 67 24 1.0 1.0 0.00 0.21 0.21 99 1017.0
20260905133745 67 20 0.0 0.0 0.00 0.21 0.21 99 1017.4
20260905133240 67 31 0.0 0.0 0.00 0.21 0.21 99 1017.3
20260905132739 67 41 1.0 1.0 0.00 0.21 0.21 99 1017.3
20260905132235 67 33 1.0 1.0 0.07 0.21 0.21 99 1017.5
20260905131730 67 60 1.0 1.0 0.12 0.21 0.21 99 1017.1
20260905131226 67 54 2.0 2.0 0.42 0.20 0.20 99 1017.1
20260905130726 67 19 4.0 4.0 0.54 0.19 0.19 99 1017.1
20260905130225 67 32 1.0 1.0 0.42 0.17 0.17 99 1017.4
20260905125720 67 16 2.0 2.0 0.07 0.10 0.10 99 1017.2
20260905125215 67 34 1.0 1.0 0.07 0.10 0.10 99 1017.3
20260905124711 67 11 1.0 1.0 0.47 0.09 0.09 99 1017.3
20260905124208 66 37 1.0 1.0 0.47 0.09 0.09 99 1016.8
20260905123702 66 163 2.0 3.0 0.00 0.01 0.01 99 1016.9
20260905123159 65 10 1.0 1.0 0.00 0.01 0.01 99 1016.7
20260905122658 65 354 2.0 2.0 0.00 0.01 0.01 99 1015.6
20260905122153 65 36 0.0 0.0 0.00 0.01 0.01 99 1015.4
20260905121648 65 31 0.0 0.0 0.00 0.01 0.01 99 1015.3
20260905121144 65 27 0.0 0.0 0.00 0.01 0.01 99 1015.3
20260905120642 65 29 0.0 0.0 0.00 0.01 0.01 99 1015.3
20260905120138 65 32 0.0 0.0 0.00 0.01 0.01 99 1015.5
20260905115637 65 17 1.0 1.0 0.00 0.01 0.01 99 1015.4
20260905115132 64 24 0.0 0.0 0.00 0.01 0.01 99 1015.4
20260905114632 64 33 0.0 0.0 0.00 0.01 0.01 99 1015.4
20260905114131 64 33 0.0 0.0 0.00 0.01 0.01 99 1015.3
20260905113626 64 33 0.0 0.0 0.00 0.01 0.01 99 1015.3
20260905113122 64 35 1.0 1.0 0.00 0.01 0.01 99 1015.2
20260905112621 64 31 0.0 0.0 0.00 0.01 0.01 99 1015.3